Flag for China Weather past 2 weeks in Kashgar, Xinjiang, China

Now
63 °F

Sunny.


Feels Like: 63 °F
Forecast: 63 / 82 °F
Wind: No wind

Location: Kashi Airport

Current Time: Aug 31, 2014 at 9:24:54 AM

Latest Report: Aug 31, 2014 at 9:00 AM


Visibility: 10 mi

Pressure: 30.09 "Hg

Humidity: 59%

Dew point: 48 °F

Location of KashgarLocation

Historic Weather in Kashgar — Graph

°F

Kashgar temperature yesterday

Maximum temperature yesterday: 82 °F (at 4:00 PM)
Minimum temperature yesterday: 66 °F (at 8:00 AM)
Average temperature yesterday: 74 °F

Past Weeks' High & Low Weather Summary

 TemperatureHumidityPressure
High93 °F (Aug 24, 4:00 PM)83% (Aug 16, 8:00 AM)30.15 "Hg (Aug 16, 8:00 AM)
Low61 °F (Aug 16, 8:00 AM)8% (Aug 24, 8:00 PM)29.77 "Hg (Aug 16, 6:00 PM)
Average77 °F29%29.96 "Hg
* Reported Aug 16 8:00 AM — Aug 31 8:00 AM, Kashgar, Weather by CustomWeather, © 2014

Note: Actual official high and low records may vary slightly from our data, if they occured in-between our weather recording intervals... More about our weather records

Advertising

Kashgar weather history for previous 24 hours

 ConditionsComfort  
Time TempWeatherWind HumidityBarometerVisibility
8:00 AM
Aug 31
63 °FClear.No wind56%30.09 "Hg10 mi
7:00 AM64 °FClear.No wind52%30.09 "Hg10 mi
6:00 AM64 °FClear.3 mph52%30.09 "Hg10 mi
5:00 AM66 °FClear.3 mph49%30.09 "Hg10 mi
4:00 AM66 °FClear.3 mph49%30.12 "Hg10 mi
3:00 AM68 °FPassing clouds.6 mph49%30.12 "HgN/A
2:00 AM68 °FClear.3 mph49%30.15 "Hg10 mi
1:00 AM66 °FClear.6 mph52%30.15 "Hg10 mi
12:00 AM66 °FPassing clouds.17 mph52%30.15 "HgN/A
11:00 PM
Aug 30
72 °FPassing clouds.10 mph50%30.09 "Hg5 mi
10:00 PM73 °FClear.8 mph47%30.04 "Hg5 mi
9:00 PM75 °FClear.10 mph44%30.01 "Hg5 mi
8:00 PM79 °FClear.8 mph34%29.98 "Hg4 mi
7:00 PM81 °FClear.10 mph32%29.98 "Hg4 mi
6:00 PM82 °FClear.13 mph28%29.98 "Hg4 mi
5:00 PM82 °FSunny.10 mph28%29.98 "Hg10 mi
4:00 PM82 °FClear.13 mph28%30.01 "Hg4 mi
3:00 PM81 °FPassing clouds.10 mph32%30.04 "HgN/A
2:00 PM77 °FPassing clouds.10 mph42%30.07 "HgN/A
1:00 PM75 °FPassing clouds.10 mph44%30.07 "HgN/A
12:00 PM73 °FSunny.10 mph38%30.07 "Hg10 mi
11:00 AM73 °FSunny.8 mph38%30.07 "Hg10 mi
10:00 AM72 °FSunny.10 mph41%30.04 "Hg10 mi
9:00 AM66 °FPassing clouds.6 mph56%30.04 "HgN/A
Weather by CustomWeather, © 2014

See weather overviewHow to use our weather pages